Terminal Aerodrome Forecast
Issued by NWS Upton, NY

Home | Current Version | Previous Version | Text Only | Print | Product List | Glossary On
Versions: 1 2 3 4 5 6 7 8 9 10 11 12 13 14 15 16 17 18 19 20 21 22 23 24 25 26 27 28 29 30 31 32 33 34 35 36 37 38 39
000
FTUS41 KOKX 242000 AAB
TAFLGA
TAF AMD
KLGA 242058Z 2421/2518 05008KT P6SM BKN050
     FM242200 04007KT P6SM SCT050
     FM250100 35007KT P6SM FEW050
     FM250400 33006KT P6SM SCT250
     FM251500 29011KT P6SM FEW040 SCT250=

USA.gov is the U.S. government's official web portal to all federal, state and local government web resources and services.